Regional Weather Roundup
Issued by NWS

Home | Current Version | Previous Version | Text Only | Print | Product List | Glossary Off
Versions: 1 2 3 4 5 6 7 8 9 10 11 12 13 14 15 16 17 18 19 20 21 22 23 24 25 26 27 28 29 30 31 32 33 34 35 36 37 38 39 40 41 42 43 44 45 46 47 48 49 50

000
ASUS43 KFSD 022202
RWRSD

WEATHER ROUNDUP FOR SOUTH DAKOTA
NATIONAL WEATHER SERVICE SIOUX FALLS SD
500 PM CDT WED SEP 02 2015

NOTE: "FAIR" INDICATES FEW OR NO CLOUDS BELOW 12,000 FEET WITH NO
SIGNIFICANT WEATHER AND/OR OBSTRUCTIONS TO VISIBILITY.


SDZ001>005-009-010-012>017-022300-
NORTHWEST AND NORTH CENTRAL SOUTH DAKOTA

CITY           SKY/WX    TMP DP  RH WIND       PRES   REMARKS
BUFFALO          N/A     95  44  17 SE8       29.70F
FAITH            N/A     97  50  20 SW12      29.74F
MOBRIDGE       SUNNY     91  70  49 SE12      29.71F HX  96
$$

SDZ012>016-024>037-041>051-057-063-072>074-022300-
SOUTHWEST AND SOUTH CENTRAL SOUTH DAKOTA

CITY           SKY/WX    TMP DP  RH WIND       PRES   REMARKS
RAPID CTY ARPT SUNNY     96  51  21 SE7       29.77F
PIERRE         SUNNY     96  61  31 SE15      29.70F HX  96
CUSTER         SUNNY     87  36  16 W10G23    29.98F
ELLSWORTH AFB  MOSUNNY   97  47  18 N3        29.77F
PHILIP         SUNNY     99  52  20 S14       29.72F HX  96
PINE RIDGE     SUNNY     97  43  15 SW6       29.83F
WINNER         FAIR     100  55  22 S16       29.74F HX  98
$$

SDZ004>011-016>023-039-040-022300-
NORTHEAST SOUTH DAKOTA

CITY           SKY/WX    TMP DP  RH WIND       PRES   REMARKS
ABERDEEN       PTSUNNY   88  72  58 S9        29.75F
WATERTOWN      MOSUNNY   85  71  63 S12       29.81S
BROOKINGS      PTSUNNY   84  72  65 S12       29.83S
$$

SDZ017-020-022-023-036>040-048>070-022300-
SOUTHEAST SOUTH DAKOTA

CITY           SKY/WX    TMP DP  RH WIND       PRES   REMARKS
SIOUX FALLS    PTSUNNY   86  73  65 S14G20    29.80F
HURON          MOSUNNY   91  72  53 SE13      29.73F HX  98
CHAMBERLAIN    SUNNY     93  73  51 SE7       29.73F HX 102
MITCHELL       SUNNY     92  75  57 SE13      29.75F HX 103
YANKTON        SUNNY     90  72  55 SE16G22   29.77S HX  96
$$

ABBREVIATIONS USED IN REMARKS
   TC - TEMPERATURE IN CELSIUS
  WCI - WIND CHILL INDEX
   HX - HEAT INDEX
  VSB - VISIBILITY



USA.gov is the U.S. government's official web portal to all federal, state and local government web resources and services.